owner,sensor,date,latitude,longitude,vertical_datum,sea_water_temperature,qcFlag 
WAVCIS,ioos:station:WAVCIS:CSI16:2,2010-10-01T00:00:00Z,29.4012,-89.0355,10.0,26.724,11111222 
WAVCIS,ioos:station:WAVCIS:CSI16:2,2010-10-01T00:15:00Z,29.4012,-89.0355,10.0,26.777,11111222 
WAVCIS,ioos:station:WAVCIS:CSI16:2,2010-10-01T00:30:00Z,29.4012,-89.0355,10.0,26.774,11111222 
WAVCIS,ioos:station:WAVCIS:CSI16:2,2010-10-01T00:45:00Z,29.4012,-89.0355,10.0,26.77,11111222 
WAVCIS,ioos:station:WAVCIS:CSI16:2,2010-10-01T01:00:00Z,29.4012,-89.0355,10.0,26.792,11111222 
WAVCIS,ioos:station:WAVCIS:CSI16:2,2010-10-01T01:15:00Z,29.4012,-89.0355,10.0,26.834,11111222 
WAVCIS,ioos:station:WAVCIS:CSI16:2,2010-10-01T01:30:00Z,29.4012,-89.0355,10.0,26.872,11111222 
WAVCIS,ioos:station:WAVCIS:CSI16:2,2010-10-01T01:45:00Z,29.4012,-89.0355,10.0,26.888,11111222 
WAVCIS,ioos:station:WAVCIS:CSI16:2,2010-10-01T02:00:00Z,29.4012,-89.0355,10.0,26.943,11111222 
WAVCIS,ioos:station:WAVCIS:CSI16:2,2010-10-01T02:15:00Z,29.4012,-89.0355,10.0,27.023,11111222 
WAVCIS,ioos:station:WAVCIS:CSI16:2,2010-10-01T02:30:00Z,29.4012,-89.0355,10.0,27.074,11111222 
WAVCIS,ioos:station:WAVCIS:CSI16:2,2010-10-01T02:45:00Z,29.4012,-89.0355,10.0,27.145,11111222 
WAVCIS,ioos:station:WAVCIS:CSI16:2,2010-10-01T03:00:00Z,29.4012,-89.0355,10.0,27.216,11111222 
WAVCIS,ioos:station:WAVCIS:CSI16:2,2010-10-01T03:15:00Z,29.4012,-89.0355,10.0,27.237,11111222 
WAVCIS,ioos:station:WAVCIS:CSI16:2,2010-10-01T03:30:00Z,29.4012,-89.0355,10.0,27.243,11111222 
WAVCIS,ioos:station:WAVCIS:CSI16:2,2010-10-01T03:45:00Z,29.4012,-89.0355,10.0,27.253,11111222 
WAVCIS,ioos:station:WAVCIS:CSI16:2,2010-10-01T04:00:00Z,29.4012,-89.0355,10.0,27.262,11111222 
WAVCIS,ioos:station:WAVCIS:CSI16:2,2010-10-01T04:15:00Z,29.4012,-89.0355,10.0,27.279,11111222 
WAVCIS,ioos:station:WAVCIS:CSI16:2,2010-10-01T04:30:00Z,29.4012,-89.0355,10.0,27.275,11111222 
WAVCIS,ioos:station:WAVCIS:CSI16:2,2010-10-01T04:45:00Z,29.4012,-89.0355,10.0,27.271,11111222 
WAVCIS,ioos:station:WAVCIS:CSI16:2,2010-10-01T05:00:00Z,29.4012,-89.0355,10.0,27.263,11111222 
WAVCIS,ioos:station:WAVCIS:CSI16:2,2010-10-01T05:15:00Z,29.4012,-89.0355,10.0,27.264,11111222 
WAVCIS,ioos:station:WAVCIS:CSI16:2,2010-10-01T05:30:00Z,29.4012,-89.0355,10.0,27.251,11111222 
WAVCIS,ioos:station:WAVCIS:CSI16:2,2010-10-01T05:45:00Z,29.4012,-89.0355,10.0,27.233,11111222 
WAVCIS,ioos:station:WAVCIS:CSI16:2,2010-10-01T06:00:00Z,29.4012,-89.0355,10.0,27.242,11111222 
WAVCIS,ioos:station:WAVCIS:CSI16:2,2010-10-01T06:15:00Z,29.4012,-89.0355,10.0,27.238,11111222 
WAVCIS,ioos:station:WAVCIS:CSI16:2,2010-10-01T06:30:00Z,29.4012,-89.0355,10.0,27.249,11111222 
WAVCIS,ioos:station:WAVCIS:CSI16:2,2010-10-01T06:45:00Z,29.4012,-89.0355,10.0,27.212,11111222 
WAVCIS,ioos:station:WAVCIS:CSI16:2,2010-10-01T07:00:00Z,29.4012,-89.0355,10.0,27.223,11111222 
WAVCIS,ioos:station:WAVCIS:CSI16:2,2010-10-01T07:15:00Z,29.4012,-89.0355,10.0,27.206,11111222 
WAVCIS,ioos:station:WAVCIS:CSI16:2,2010-10-01T07:30:00Z,29.4012,-89.0355,10.0,27.191,11111222 
WAVCIS,ioos:station:WAVCIS:CSI16:2,2010-10-01T07:45:00Z,29.4012,-89.0355,10.0,27.19,11111222 
WAVCIS,ioos:station:WAVCIS:CSI16:2,2010-10-01T08:00:00Z,29.4012,-89.0355,10.0,27.182,11111222 
WAVCIS,ioos:station:WAVCIS:CSI16:2,2010-10-01T08:15:00Z,29.4012,-89.0355,10.0,27.184,11111222 
WAVCIS,ioos:station:WAVCIS:CSI16:2,2010-10-01T08:30:00Z,29.4012,-89.0355,10.0,27.163,11111222 
WAVCIS,ioos:station:WAVCIS:CSI16:2,2010-10-01T08:45:00Z,29.4012,-89.0355,10.0,27.155,11111222 
WAVCIS,ioos:station:WAVCIS:CSI16:2,2010-10-01T09:00:00Z,29.4012,-89.0355,10.0,27.155,11111222 
WAVCIS,ioos:station:WAVCIS:CSI16:2,2010-10-01T09:15:00Z,29.4012,-89.0355,10.0,27.151,11111222 
WAVCIS,ioos:station:WAVCIS:CSI16:2,2010-10-01T09:30:00Z,29.4012,-89.0355,10.0,27.14,11111222 
WAVCIS,ioos:station:WAVCIS:CSI16:2,2010-10-01T09:45:00Z,29.4012,-89.0355,10.0,27.127,11111222 
WAVCIS,ioos:station:WAVCIS:CSI16:2,2010-10-01T10:00:00Z,29.4012,-89.0355,10.0,27.14,11111222 
WAVCIS,ioos:station:WAVCIS:CSI16:2,2010-10-01T10:15:00Z,29.4012,-89.0355,10.0,27.136,11111222 
WAVCIS,ioos:station:WAVCIS:CSI16:2,2010-10-01T10:30:00Z,29.4012,-89.0355,10.0,27.127,11111222 
WAVCIS,ioos:station:WAVCIS:CSI16:2,2010-10-01T10:45:00Z,29.4012,-89.0355,10.0,27.098,11111222 
WAVCIS,ioos:station:WAVCIS:CSI16:2,2010-10-01T11:00:00Z,29.4012,-89.0355,10.0,27.074,11111222 
WAVCIS,ioos:station:WAVCIS:CSI16:2,2010-10-01T11:15:00Z,29.4012,-89.0355,10.0,27.07,11111222 
WAVCIS,ioos:station:WAVCIS:CSI16:2,2010-10-01T11:30:00Z,29.4012,-89.0355,10.0,27.067,11111222 
WAVCIS,ioos:station:WAVCIS:CSI16:2,2010-10-01T11:45:00Z,29.4012,-89.0355,10.0,27.044,11111222 
WAVCIS,ioos:station:WAVCIS:CSI16:2,2010-10-01T12:00:00Z,29.4012,-89.0355,10.0,27.037,11111222 
WAVCIS,ioos:station:WAVCIS:CSI16:2,2010-10-01T12:15:00Z,29.4012,-89.0355,10.0,27.004,11111222 
WAVCIS,ioos:station:WAVCIS:CSI16:2,2010-10-01T12:30:00Z,29.4012,-89.0355,10.0,26.99,11111222 
WAVCIS,ioos:station:WAVCIS:CSI16:2,2010-10-01T12:45:00Z,29.4012,-89.0355,10.0,26.995,11111222 
WAVCIS,ioos:station:WAVCIS:CSI16:2,2010-10-01T13:00:00Z,29.4012,-89.0355,10.0,26.97,11111222 
WAVCIS,ioos:station:WAVCIS:CSI16:2,2010-10-01T13:15:00Z,29.4012,-89.0355,10.0,26.96,11111222 
WAVCIS,ioos:station:WAVCIS:CSI16:2,2010-10-01T13:30:00Z,29.4012,-89.0355,10.0,26.947,11111222 
WAVCIS,ioos:station:WAVCIS:CSI16:2,2010-10-01T13:45:00Z,29.4012,-89.0355,10.0,26.921,11111222 
WAVCIS,ioos:station:WAVCIS:CSI16:2,2010-10-01T14:00:00Z,29.4012,-89.0355,10.0,26.845,11111222 
WAVCIS,ioos:station:WAVCIS:CSI16:2,2010-10-01T14:15:00Z,29.4012,-89.0355,10.0,26.749,11111222 
WAVCIS,ioos:station:WAVCIS:CSI16:2,2010-10-01T14:30:00Z,29.4012,-89.0355,10.0,26.672,11111222 
WAVCIS,ioos:station:WAVCIS:CSI16:2,2010-10-01T14:45:00Z,29.4012,-89.0355,10.0,26.533,11111222 
WAVCIS,ioos:station:WAVCIS:CSI16:2,2010-10-01T15:00:00Z,29.4012,-89.0355,10.0,26.465,11111222 
WAVCIS,ioos:station:WAVCIS:CSI16:2,2010-10-01T15:15:00Z,29.4012,-89.0355,10.0,26.387,11111222 
WAVCIS,ioos:station:WAVCIS:CSI16:2,2010-10-01T15:30:00Z,29.4012,-89.0355,10.0,26.297,11111222 
WAVCIS,ioos:station:WAVCIS:CSI16:2,2010-10-01T15:45:00Z,29.4012,-89.0355,10.0,26.086,11111222 
WAVCIS,ioos:station:WAVCIS:CSI16:2,2010-10-01T16:00:00Z,29.4012,-89.0355,10.0,25.855,11111222 
WAVCIS,ioos:station:WAVCIS:CSI16:2,2010-10-01T16:15:00Z,29.4012,-89.0355,10.0,25.756,11111222 
WAVCIS,ioos:station:WAVCIS:CSI16:2,2010-10-01T16:30:00Z,29.4012,-89.0355,10.0,25.659,11111222 
WAVCIS,ioos:station:WAVCIS:CSI16:2,2010-10-01T16:45:00Z,29.4012,-89.0355,10.0,25.584,11111222 
WAVCIS,ioos:station:WAVCIS:CSI16:2,2010-10-01T17:00:00Z,29.4012,-89.0355,10.0,25.596,11111222 
WAVCIS,ioos:station:WAVCIS:CSI16:2,2010-10-01T17:15:00Z,29.4012,-89.0355,10.0,25.605,11111222 
WAVCIS,ioos:station:WAVCIS:CSI16:2,2010-10-01T17:30:00Z,29.4012,-89.0355,10.0,25.627,11111222 
WAVCIS,ioos:station:WAVCIS:CSI16:2,2010-10-01T17:45:00Z,29.4012,-89.0355,10.0,25.647,11111222 
WAVCIS,ioos:station:WAVCIS:CSI16:2,2010-10-01T18:00:00Z,29.4012,-89.0355,10.0,25.688,11111222 
WAVCIS,ioos:station:WAVCIS:CSI16:2,2010-10-01T18:15:00Z,29.4012,-89.0355,10.0,25.752,11111222 
WAVCIS,ioos:station:WAVCIS:CSI16:2,2010-10-01T18:30:00Z,29.4012,-89.0355,10.0,25.814,11111222 
WAVCIS,ioos:station:WAVCIS:CSI16:2,2010-10-01T18:45:00Z,29.4012,-89.0355,10.0,25.873,11111222 
WAVCIS,ioos:station:WAVCIS:CSI16:2,2010-10-01T19:00:00Z,29.4012,-89.0355,10.0,25.86,11111222 
WAVCIS,ioos:station:WAVCIS:CSI16:2,2010-10-01T19:15:00Z,29.4012,-89.0355,10.0,25.805,11111222 
WAVCIS,ioos:station:WAVCIS:CSI16:2,2010-10-01T19:30:00Z,29.4012,-89.0355,10.0,25.778,11111222 
WAVCIS,ioos:station:WAVCIS:CSI16:2,2010-10-01T19:45:00Z,29.4012,-89.0355,10.0,25.803,11111222 
WAVCIS,ioos:station:WAVCIS:CSI16:2,2010-10-01T20:00:00Z,29.4012,-89.0355,10.0,25.8,11111222 
WAVCIS,ioos:station:WAVCIS:CSI16:2,2010-10-01T20:15:00Z,29.4012,-89.0355,10.0,25.806,11111222 
WAVCIS,ioos:station:WAVCIS:CSI16:2,2010-10-01T20:30:00Z,29.4012,-89.0355,10.0,25.786,11111222 
WAVCIS,ioos:station:WAVCIS:CSI16:2,2010-10-01T20:45:00Z,29.4012,-89.0355,10.0,25.784,11111222 
WAVCIS,ioos:station:WAVCIS:CSI16:2,2010-10-01T21:00:00Z,29.4012,-89.0355,10.0,25.784,11111222 
WAVCIS,ioos:station:WAVCIS:CSI16:2,2010-10-01T21:15:00Z,29.4012,-89.0355,10.0,25.719,11111222 
WAVCIS,ioos:station:WAVCIS:CSI16:2,2010-10-01T21:30:00Z,29.4012,-89.0355,10.0,25.706,11111222 
WAVCIS,ioos:station:WAVCIS:CSI16:2,2010-10-01T21:45:00Z,29.4012,-89.0355,10.0,25.718,11111222 
WAVCIS,ioos:station:WAVCIS:CSI16:2,2010-10-01T22:00:00Z,29.4012,-89.0355,10.0,25.714,11111222 
WAVCIS,ioos:station:WAVCIS:CSI16:2,2010-10-01T22:15:00Z,29.4012,-89.0355,10.0,25.767,11111222 
WAVCIS,ioos:station:WAVCIS:CSI16:2,2010-10-01T22:30:00Z,29.4012,-89.0355,10.0,25.774,11111222 
WAVCIS,ioos:station:WAVCIS:CSI16:2,2010-10-01T22:45:00Z,29.4012,-89.0355,10.0,25.772,11111222 
WAVCIS,ioos:station:WAVCIS:CSI16:2,2010-10-01T23:00:00Z,29.4012,-89.0355,10.0,25.769,11111222 
WAVCIS,ioos:station:WAVCIS:CSI16:2,2010-10-01T23:15:00Z,29.4012,-89.0355,10.0,25.795,11111222 
WAVCIS,ioos:station:WAVCIS:CSI16:2,2010-10-01T23:30:00Z,29.4012,-89.0355,10.0,25.9,11111222 
WAVCIS,ioos:station:WAVCIS:CSI16:2,2010-10-01T23:45:00Z,29.4012,-89.0355,10.0,25.919,11111222 
WAVCIS,ioos:station:WAVCIS:CSI16:2,2010-10-02T00:00:00Z,29.4012,-89.0355,10.0,25.998,11111222 
WAVCIS,ioos:station:WAVCIS:CSI16:2,2010-10-02T00:15:00Z,29.4012,-89.0355,10.0,26.063,11111222 
WAVCIS,ioos:station:WAVCIS:CSI16:2,2010-10-02T00:30:00Z,29.4012,-89.0355,10.0,26.155,11111222 
WAVCIS,ioos:station:WAVCIS:CSI16:2,2010-10-02T00:45:00Z,29.4012,-89.0355,10.0,26.263,11111222 
WAVCIS,ioos:station:WAVCIS:CSI16:2,2010-10-02T01:00:00Z,29.4012,-89.0355,10.0,26.13,11111222 
WAVCIS,ioos:station:WAVCIS:CSI16:2,2010-10-02T01:15:00Z,29.4012,-89.0355,10.0,26.178,11111222 
WAVCIS,ioos:station:WAVCIS:CSI16:2,2010-10-02T01:30:00Z,29.4012,-89.0355,10.0,26.187,11111222 
WAVCIS,ioos:station:WAVCIS:CSI16:2,2010-10-02T01:45:00Z,29.4012,-89.0355,10.0,26.285,11111222 
WAVCIS,ioos:station:WAVCIS:CSI16:2,2010-10-02T02:00:00Z,29.4012,-89.0355,10.0,26.347,11111222 
WAVCIS,ioos:station:WAVCIS:CSI16:2,2010-10-02T02:15:00Z,29.4012,-89.0355,10.0,26.441,11111222 
WAVCIS,ioos:station:WAVCIS:CSI16:2,2010-10-02T02:30:00Z,29.4012,-89.0355,10.0,26.501,11111222 
WAVCIS,ioos:station:WAVCIS:CSI16:2,2010-10-02T02:45:00Z,29.4012,-89.0355,10.0,26.562,11111222 
WAVCIS,ioos:station:WAVCIS:CSI16:2,2010-10-02T03:00:00Z,29.4012,-89.0355,10.0,26.67,11111222 
WAVCIS,ioos:station:WAVCIS:CSI16:2,2010-10-02T03:15:00Z,29.4012,-89.0355,10.0,26.834,11111222 
WAVCIS,ioos:station:WAVCIS:CSI16:2,2010-10-02T03:30:00Z,29.4012,-89.0355,10.0,26.917,11111222 
WAVCIS,ioos:station:WAVCIS:CSI16:2,2010-10-02T03:45:00Z,29.4012,-89.0355,10.0,26.949,11111222 
WAVCIS,ioos:station:WAVCIS:CSI16:2,2010-10-02T04:00:00Z,29.4012,-89.0355,10.0,26.976,11111222 
WAVCIS,ioos:station:WAVCIS:CSI16:2,2010-10-02T04:15:00Z,29.4012,-89.0355,10.0,26.994,11111222 
WAVCIS,ioos:station:WAVCIS:CSI16:2,2010-10-02T04:30:00Z,29.4012,-89.0355,10.0,27.093,11111222 
WAVCIS,ioos:station:WAVCIS:CSI16:2,2010-10-02T04:45:00Z,29.4012,-89.0355,10.0,27.085,11111222 
WAVCIS,ioos:station:WAVCIS:CSI16:2,2010-10-02T05:00:00Z,29.4012,-89.0355,10.0,27.082,11111222 
WAVCIS,ioos:station:WAVCIS:CSI16:2,2010-10-02T05:15:00Z,29.4012,-89.0355,10.0,27.061,11111222 
WAVCIS,ioos:station:WAVCIS:CSI16:2,2010-10-02T05:30:00Z,29.4012,-89.0355,10.0,27.018,11111222 
WAVCIS,ioos:station:WAVCIS:CSI16:2,2010-10-02T05:45:00Z,29.4012,-89.0355,10.0,27.005,11111222 
WAVCIS,ioos:station:WAVCIS:CSI16:2,2010-10-02T06:00:00Z,29.4012,-89.0355,10.0,27.028,11111222 
WAVCIS,ioos:station:WAVCIS:CSI16:2,2010-10-02T06:15:00Z,29.4012,-89.0355,10.0,27.014,11111222 
WAVCIS,ioos:station:WAVCIS:CSI16:2,2010-10-02T06:30:00Z,29.4012,-89.0355,10.0,27.007,11111222 
WAVCIS,ioos:station:WAVCIS:CSI16:2,2010-10-02T06:45:00Z,29.4012,-89.0355,10.0,27.005,11111222 
WAVCIS,ioos:station:WAVCIS:CSI16:2,2010-10-02T07:00:00Z,29.4012,-89.0355,10.0,26.986,11111222 
WAVCIS,ioos:station:WAVCIS:CSI16:2,2010-10-02T07:15:00Z,29.4012,-89.0355,10.0,26.983,11111222 
WAVCIS,ioos:station:WAVCIS:CSI16:2,2010-10-02T07:30:00Z,29.4012,-89.0355,10.0,26.976,11111222 
WAVCIS,ioos:station:WAVCIS:CSI16:2,2010-10-02T07:45:00Z,29.4012,-89.0355,10.0,26.976,11111222 
WAVCIS,ioos:station:WAVCIS:CSI16:2,2010-10-02T08:00:00Z,29.4012,-89.0355,10.0,26.946,11111222 
WAVCIS,ioos:station:WAVCIS:CSI16:2,2010-10-02T08:15:00Z,29.4012,-89.0355,10.0,26.938,11111222 
WAVCIS,ioos:station:WAVCIS:CSI16:2,2010-10-02T08:30:00Z,29.4012,-89.0355,10.0,26.948,11111222 
WAVCIS,ioos:station:WAVCIS:CSI16:2,2010-10-02T08:45:00Z,29.4012,-89.0355,10.0,26.946,11111222 
WAVCIS,ioos:station:WAVCIS:CSI16:2,2010-10-02T09:00:00Z,29.4012,-89.0355,10.0,26.954,11111222 
WAVCIS,ioos:station:WAVCIS:CSI16:2,2010-10-02T09:15:00Z,29.4012,-89.0355,10.0,26.949,11111222 
WAVCIS,ioos:station:WAVCIS:CSI16:2,2010-10-02T09:30:00Z,29.4012,-89.0355,10.0,26.944,11111222 
WAVCIS,ioos:station:WAVCIS:CSI16:2,2010-10-02T09:45:00Z,29.4012,-89.0355,10.0,26.93,11111222 
WAVCIS,ioos:station:WAVCIS:CSI16:2,2010-10-02T10:00:00Z,29.4012,-89.0355,10.0,26.936,11111222 
WAVCIS,ioos:station:WAVCIS:CSI16:2,2010-10-02T10:15:00Z,29.4012,-89.0355,10.0,26.933,11111222 
WAVCIS,ioos:station:WAVCIS:CSI16:2,2010-10-02T10:30:00Z,29.4012,-89.0355,10.0,26.915,11111222 
WAVCIS,ioos:station:WAVCIS:CSI16:2,2010-10-02T10:45:00Z,29.4012,-89.0355,10.0,26.907,11111222 
WAVCIS,ioos:station:WAVCIS:CSI16:2,2010-10-02T11:00:00Z,29.4012,-89.0355,10.0,26.899,11111222 
WAVCIS,ioos:station:WAVCIS:CSI16:2,2010-10-02T11:15:00Z,29.4012,-89.0355,10.0,26.881,11111222 
WAVCIS,ioos:station:WAVCIS:CSI16:2,2010-10-02T11:30:00Z,29.4012,-89.0355,10.0,26.886,11111222 
WAVCIS,ioos:station:WAVCIS:CSI16:2,2010-10-02T11:45:00Z,29.4012,-89.0355,10.0,26.857,11111222 
WAVCIS,ioos:station:WAVCIS:CSI16:2,2010-10-02T12:00:00Z,29.4012,-89.0355,10.0,26.844,11111222 
WAVCIS,ioos:station:WAVCIS:CSI16:2,2010-10-02T12:15:00Z,29.4012,-89.0355,10.0,26.816,11111222 
WAVCIS,ioos:station:WAVCIS:CSI16:2,2010-10-02T12:30:00Z,29.4012,-89.0355,10.0,26.788,11111222 
WAVCIS,ioos:station:WAVCIS:CSI16:2,2010-10-02T12:45:00Z,29.4012,-89.0355,10.0,26.795,11111222 
WAVCIS,ioos:station:WAVCIS:CSI16:2,2010-10-02T13:00:00Z,29.4012,-89.0355,10.0,26.774,11111222 
WAVCIS,ioos:station:WAVCIS:CSI16:2,2010-10-02T13:15:00Z,29.4012,-89.0355,10.0,26.774,11111222 
WAVCIS,ioos:station:WAVCIS:CSI16:2,2010-10-02T13:30:00Z,29.4012,-89.0355,10.0,26.751,11111222 
WAVCIS,ioos:station:WAVCIS:CSI16:2,2010-10-02T13:45:00Z,29.4012,-89.0355,10.0,26.746,11111222 
WAVCIS,ioos:station:WAVCIS:CSI16:2,2010-10-02T14:00:00Z,29.4012,-89.0355,10.0,26.731,11111222 
WAVCIS,ioos:station:WAVCIS:CSI16:2,2010-10-02T14:15:00Z,29.4012,-89.0355,10.0,26.708,11111222 
WAVCIS,ioos:station:WAVCIS:CSI16:2,2010-10-02T14:30:00Z,29.4012,-89.0355,10.0,26.701,11111222 
WAVCIS,ioos:station:WAVCIS:CSI16:2,2010-10-02T14:45:00Z,29.4012,-89.0355,10.0,26.706,11111222 
WAVCIS,ioos:station:WAVCIS:CSI16:2,2010-10-02T15:00:00Z,29.4012,-89.0355,10.0,26.713,11111222 
WAVCIS,ioos:station:WAVCIS:CSI16:2,2010-10-02T15:15:00Z,29.4012,-89.0355,10.0,26.553,11111222 
WAVCIS,ioos:station:WAVCIS:CSI16:2,2010-10-02T15:30:00Z,29.4012,-89.0355,10.0,26.331,11111222 
WAVCIS,ioos:station:WAVCIS:CSI16:2,2010-10-02T15:45:00Z,29.4012,-89.0355,10.0,26.106,11111222 
WAVCIS,ioos:station:WAVCIS:CSI16:2,2010-10-02T16:00:00Z,29.4012,-89.0355,10.0,26.091,11111222 
WAVCIS,ioos:station:WAVCIS:CSI16:2,2010-10-02T16:15:00Z,29.4012,-89.0355,10.0,26.058,11111222 
WAVCIS,ioos:station:WAVCIS:CSI16:2,2010-10-02T16:30:00Z,29.4012,-89.0355,10.0,25.902,11111222 
WAVCIS,ioos:station:WAVCIS:CSI16:2,2010-10-02T16:45:00Z,29.4012,-89.0355,10.0,25.604,11111222 
WAVCIS,ioos:station:WAVCIS:CSI16:2,2010-10-02T17:00:00Z,29.4012,-89.0355,10.0,25.531,11111222 
WAVCIS,ioos:station:WAVCIS:CSI16:2,2010-10-02T17:15:00Z,29.4012,-89.0355,10.0,25.496,11111222 
WAVCIS,ioos:station:WAVCIS:CSI16:2,2010-10-02T17:30:00Z,29.4012,-89.0355,10.0,25.501,11111222 
WAVCIS,ioos:station:WAVCIS:CSI16:2,2010-10-02T17:45:00Z,29.4012,-89.0355,10.0,25.565,11111222 
WAVCIS,ioos:station:WAVCIS:CSI16:2,2010-10-02T18:00:00Z,29.4012,-89.0355,10.0,25.581,11111222 
WAVCIS,ioos:station:WAVCIS:CSI16:2,2010-10-02T18:15:00Z,29.4012,-89.0355,10.0,25.597,11111222 
WAVCIS,ioos:station:WAVCIS:CSI16:2,2010-10-02T18:30:00Z,29.4012,-89.0355,10.0,25.714,11111222 
WAVCIS,ioos:station:WAVCIS:CSI16:2,2010-10-02T18:45:00Z,29.4012,-89.0355,10.0,25.728,11111222 
WAVCIS,ioos:station:WAVCIS:CSI16:2,2010-10-02T19:00:00Z,29.4012,-89.0355,10.0,25.724,11111222 
WAVCIS,ioos:station:WAVCIS:CSI16:2,2010-10-02T19:15:00Z,29.4012,-89.0355,10.0,25.713,11111222 
WAVCIS,ioos:station:WAVCIS:CSI16:2,2010-10-02T19:30:00Z,29.4012,-89.0355,10.0,25.693,11111222 
WAVCIS,ioos:station:WAVCIS:CSI16:2,2010-10-02T19:45:00Z,29.4012,-89.0355,10.0,25.669,11111222 
WAVCIS,ioos:station:WAVCIS:CSI16:2,2010-10-02T20:00:00Z,29.4012,-89.0355,10.0,25.57,11111222 
WAVCIS,ioos:station:WAVCIS:CSI16:2,2010-10-02T20:15:00Z,29.4012,-89.0355,10.0,25.249,11111222 
WAVCIS,ioos:station:WAVCIS:CSI16:2,2010-10-02T20:30:00Z,29.4012,-89.0355,10.0,25.259,11111222 
WAVCIS,ioos:station:WAVCIS:CSI16:2,2010-10-02T20:45:00Z,29.4012,-89.0355,10.0,25.236,11111222 
WAVCIS,ioos:station:WAVCIS:CSI16:2,2010-10-02T21:00:00Z,29.4012,-89.0355,10.0,25.234,11111222 
WAVCIS,ioos:station:WAVCIS:CSI16:2,2010-10-02T21:15:00Z,29.4012,-89.0355,10.0,25.237,11111222 
WAVCIS,ioos:station:WAVCIS:CSI16:2,2010-10-02T21:30:00Z,29.4012,-89.0355,10.0,25.239,11111222 
WAVCIS,ioos:station:WAVCIS:CSI16:2,2010-10-02T21:45:00Z,29.4012,-89.0355,10.0,25.233,11111222 
WAVCIS,ioos:station:WAVCIS:CSI16:2,2010-10-02T22:00:00Z,29.4012,-89.0355,10.0,25.243,11111222 
WAVCIS,ioos:station:WAVCIS:CSI16:2,2010-10-02T22:15:00Z,29.4012,-89.0355,10.0,25.24,11111222 
WAVCIS,ioos:station:WAVCIS:CSI16:2,2010-10-02T22:30:00Z,29.4012,-89.0355,10.0,25.227,11111222 
WAVCIS,ioos:station:WAVCIS:CSI16:2,2010-10-02T22:45:00Z,29.4012,-89.0355,10.0,25.195,11111222 
WAVCIS,ioos:station:WAVCIS:CSI16:2,2010-10-02T23:00:00Z,29.4012,-89.0355,10.0,25.182,11111222 
WAVCIS,ioos:station:WAVCIS:CSI16:2,2010-10-02T23:15:00Z,29.4012,-89.0355,10.0,25.239,11111222 
WAVCIS,ioos:station:WAVCIS:CSI16:2,2010-10-02T23:30:00Z,29.4012,-89.0355,10.0,25.246,11111222 
WAVCIS,ioos:station:WAVCIS:CSI16:2,2010-10-02T23:45:00Z,29.4012,-89.0355,10.0,25.267,11111222 
WAVCIS,ioos:station:WAVCIS:CSI16:2,2010-10-03T00:00:00Z,29.4012,-89.0355,10.0,25.28,11111222 
WAVCIS,ioos:station:WAVCIS:CSI16:2,2010-10-03T00:15:00Z,29.4012,-89.0355,10.0,25.25,11111222 
WAVCIS,ioos:station:WAVCIS:CSI16:2,2010-10-03T00:30:00Z,29.4012,-89.0355,10.0,25.231,11111222 
WAVCIS,ioos:station:WAVCIS:CSI16:2,2010-10-03T00:45:00Z,29.4012,-89.0355,10.0,25.247,11111222 
WAVCIS,ioos:station:WAVCIS:CSI16:2,2010-10-03T01:00:00Z,29.4012,-89.0355,10.0,25.26,11111222 
WAVCIS,ioos:station:WAVCIS:CSI16:2,2010-10-03T01:15:00Z,29.4012,-89.0355,10.0,25.273,11111222 
WAVCIS,ioos:station:WAVCIS:CSI16:2,2010-10-03T01:30:00Z,29.4012,-89.0355,10.0,25.294,11111222 
WAVCIS,ioos:station:WAVCIS:CSI16:2,2010-10-03T01:45:00Z,29.4012,-89.0355,10.0,25.309,11111222 
WAVCIS,ioos:station:WAVCIS:CSI16:2,2010-10-03T02:00:00Z,29.4012,-89.0355,10.0,25.315,11111222 
WAVCIS,ioos:station:WAVCIS:CSI16:2,2010-10-03T02:15:00Z,29.4012,-89.0355,10.0,25.315,11111222 
WAVCIS,ioos:station:WAVCIS:CSI16:2,2010-10-03T02:30:00Z,29.4012,-89.0355,10.0,25.325,11111222 
WAVCIS,ioos:station:WAVCIS:CSI16:2,2010-10-03T02:45:00Z,29.4012,-89.0355,10.0,25.364,11111222 
WAVCIS,ioos:station:WAVCIS:CSI16:2,2010-10-03T03:00:00Z,29.4012,-89.0355,10.0,25.545,11111222 
WAVCIS,ioos:station:WAVCIS:CSI16:2,2010-10-03T03:15:00Z,29.4012,-89.0355,10.0,25.621,11111222 
WAVCIS,ioos:station:WAVCIS:CSI16:2,2010-10-03T03:30:00Z,29.4012,-89.0355,10.0,25.743,11111222 
WAVCIS,ioos:station:WAVCIS:CSI16:2,2010-10-03T03:45:00Z,29.4012,-89.0355,10.0,25.79,11111222 
WAVCIS,ioos:station:WAVCIS:CSI16:2,2010-10-03T04:00:00Z,29.4012,-89.0355,10.0,25.928,11111222 
WAVCIS,ioos:station:WAVCIS:CSI16:2,2010-10-03T04:15:00Z,29.4012,-89.0355,10.0,26.156,11111222 
WAVCIS,ioos:station:WAVCIS:CSI16:2,2010-10-03T04:30:00Z,29.4012,-89.0355,10.0,26.23,11111222 
WAVCIS,ioos:station:WAVCIS:CSI16:2,2010-10-03T04:45:00Z,29.4012,-89.0355,10.0,26.264,11111222 
WAVCIS,ioos:station:WAVCIS:CSI16:2,2010-10-03T05:00:00Z,29.4012,-89.0355,10.0,26.282,11111222 
WAVCIS,ioos:station:WAVCIS:CSI16:2,2010-10-03T05:15:00Z,29.4012,-89.0355,10.0,26.35,11111222 
WAVCIS,ioos:station:WAVCIS:CSI16:2,2010-10-03T05:30:00Z,29.4012,-89.0355,10.0,26.434,11111222 
WAVCIS,ioos:station:WAVCIS:CSI16:2,2010-10-03T05:45:00Z,29.4012,-89.0355,10.0,26.438,11111222 
WAVCIS,ioos:station:WAVCIS:CSI16:2,2010-10-03T06:00:00Z,29.4012,-89.0355,10.0,26.427,11111222 
WAVCIS,ioos:station:WAVCIS:CSI16:2,2010-10-03T06:15:00Z,29.4012,-89.0355,10.0,26.472,11111222 
WAVCIS,ioos:station:WAVCIS:CSI16:2,2010-10-03T06:30:00Z,29.4012,-89.0355,10.0,26.506,11111222 
WAVCIS,ioos:station:WAVCIS:CSI16:2,2010-10-03T06:45:00Z,29.4012,-89.0355,10.0,26.547,11111222 
WAVCIS,ioos:station:WAVCIS:CSI16:2,2010-10-03T07:00:00Z,29.4012,-89.0355,10.0,26.529,11111222 
WAVCIS,ioos:station:WAVCIS:CSI16:2,2010-10-03T07:15:00Z,29.4012,-89.0355,10.0,26.53,11111222 
WAVCIS,ioos:station:WAVCIS:CSI16:2,2010-10-03T07:30:00Z,29.4012,-89.0355,10.0,26.517,11111222 
WAVCIS,ioos:station:WAVCIS:CSI16:2,2010-10-03T07:45:00Z,29.4012,-89.0355,10.0,26.532,11111222 
WAVCIS,ioos:station:WAVCIS:CSI16:2,2010-10-03T08:00:00Z,29.4012,-89.0355,10.0,26.542,11111222 
WAVCIS,ioos:station:WAVCIS:CSI16:2,2010-10-03T08:15:00Z,29.4012,-89.0355,10.0,26.555,11111222 
WAVCIS,ioos:station:WAVCIS:CSI16:2,2010-10-03T08:30:00Z,29.4012,-89.0355,10.0,26.552,11111222 
WAVCIS,ioos:station:WAVCIS:CSI16:2,2010-10-03T08:45:00Z,29.4012,-89.0355,10.0,26.538,11111222 
WAVCIS,ioos:station:WAVCIS:CSI16:2,2010-10-03T09:00:00Z,29.4012,-89.0355,10.0,26.536,11111222 
WAVCIS,ioos:station:WAVCIS:CSI16:2,2010-10-03T09:15:00Z,29.4012,-89.0355,10.0,26.528,11111222 
WAVCIS,ioos:station:WAVCIS:CSI16:2,2010-10-03T09:30:00Z,29.4012,-89.0355,10.0,26.537,11111222 
WAVCIS,ioos:station:WAVCIS:CSI16:2,2010-10-03T09:45:00Z,29.4012,-89.0355,10.0,26.518,11111222 
WAVCIS,ioos:station:WAVCIS:CSI16:2,2010-10-03T10:00:00Z,29.4012,-89.0355,10.0,26.514,11111222 
WAVCIS,ioos:station:WAVCIS:CSI16:2,2010-10-03T10:15:00Z,29.4012,-89.0355,10.0,26.5,11111222 
WAVCIS,ioos:station:WAVCIS:CSI16:2,2010-10-03T10:30:00Z,29.4012,-89.0355,10.0,26.506,11111222 
WAVCIS,ioos:station:WAVCIS:CSI16:2,2010-10-03T10:45:00Z,29.4012,-89.0355,10.0,26.471,11111222 
WAVCIS,ioos:station:WAVCIS:CSI16:2,2010-10-03T11:00:00Z,29.4012,-89.0355,10.0,26.433,11111222 
WAVCIS,ioos:station:WAVCIS:CSI16:2,2010-10-03T11:15:00Z,29.4012,-89.0355,10.0,26.415,11111222 
WAVCIS,ioos:station:WAVCIS:CSI16:2,2010-10-03T11:30:00Z,29.4012,-89.0355,10.0,26.381,11111222 
WAVCIS,ioos:station:WAVCIS:CSI16:2,2010-10-03T11:45:00Z,29.4012,-89.0355,10.0,26.38,11111222 
WAVCIS,ioos:station:WAVCIS:CSI16:2,2010-10-03T12:00:00Z,29.4012,-89.0355,10.0,26.35,11111222 
WAVCIS,ioos:station:WAVCIS:CSI16:2,2010-10-03T12:15:00Z,29.4012,-89.0355,10.0,26.326,11111222 
WAVCIS,ioos:station:WAVCIS:CSI16:2,2010-10-03T12:30:00Z,29.4012,-89.0355,10.0,26.219,11111222 
WAVCIS,ioos:station:WAVCIS:CSI16:2,2010-10-03T12:45:00Z,29.4012,-89.0355,10.0,26.192,11111222 
WAVCIS,ioos:station:WAVCIS:CSI16:2,2010-10-03T13:00:00Z,29.4012,-89.0355,10.0,26.154,11111222 
WAVCIS,ioos:station:WAVCIS:CSI16:2,2010-10-03T13:15:00Z,29.4012,-89.0355,10.0,26.121,11111222 
WAVCIS,ioos:station:WAVCIS:CSI16:2,2010-10-03T13:30:00Z,29.4012,-89.0355,10.0,26.128,11111222 
WAVCIS,ioos:station:WAVCIS:CSI16:2,2010-10-03T13:45:00Z,29.4012,-89.0355,10.0,26.092,11111222 
WAVCIS,ioos:station:WAVCIS:CSI16:2,2010-10-03T14:00:00Z,29.4012,-89.0355,10.0,26.079,11111222 
WAVCIS,ioos:station:WAVCIS:CSI16:2,2010-10-03T14:15:00Z,29.4012,-89.0355,10.0,25.967,11111222 
WAVCIS,ioos:station:WAVCIS:CSI16:2,2010-10-03T14:30:00Z,29.4012,-89.0355,10.0,25.803,11111222 
WAVCIS,ioos:station:WAVCIS:CSI16:2,2010-10-03T14:45:00Z,29.4012,-89.0355,10.0,25.684,11111222 